QPF
0.00 0.00 0.00 0.00 0.00 0.00 0.00 0.00 0.00 0.00 0.00 0.00 0.00 0.00 0.00 0.00 0.00 0.00 0.00 0.00 0.00 0.00 0.00 0.00 0.00 0.00 0.00 0.00 0.00 0.00 0.00 0.01 0.01 0.01 0.00 0.00 0.00 0.00 0.00 0.01 0.02 0.01 0.01 0.03
0.00 0.00 0.00 0.00 0.00 0.00 0.00 0.00 0.00 0.00 0.00 0.00 0.00 0.00 0.00 0.00 0.00 0.00 0.00 0.00 0.00 0.00 0.00 0.00 0.00 0.00 0.00 0.00 0.00 0.01 0.01 0.01 0.00 0.00 0.01 0.00 0.01 0.00 0.00 0.00 0.00 0.01 0.02 0.03
0.00 0.00 0.00 0.00 0.00 0.00 0.00 0.00 0.00 0.00 0.00 0.00 0.00 0.00 0.00 0.00 0.00 0.00 0.00 0.00 0.00 0.00 0.00 0.00 0.00 0.00 0.00 0.00 0.00 0.00 0.00 0.00 0.00 0.01 0.02 0.01 0.00 0.00 0.00 0.00 0.01 0.01 0.02 0.01
0.00 0.00 0.00 0.00 0.00 0.00 0.00 0.00 0.00 0.00 0.00 0.00 0.00 0.00 0.00 0.00 0.00 0.00 0.00 0.00 0.00 0.00 0.00 0.00 0.00 0.00 0.00 0.00 0.00 0.00 0.00 0.00 0.00 0.00 0.00 0.00 0.00 0.00 0.00 0.00 0.00 0.00 0.01 0.01
0.01 0.00 0.00 0.00 0.00 0.00 0.00 0.00 0.00 0.00 0.00 0.00 0.00 0.00 0.00 0.00 0.00 0.00 0.00 0.00 0.00 0.00 0.00 0.00 0.00 0.00 0.00 0.00 0.00 0.00 0.00 0.00 0.00 0.00 0.00 0.00 0.00 0.00 0.00 0.00 0.00 0.00 0.00 0.00
0.01 0.01 0.00 0.00 0.00 0.00 0.00 0.00 0.00 0.00 0.00 0.00 0.00 0.00 0.00 0.00 0.00 0.00 0.00 0.00 0.00 0.00 0.00 0.00 0.00 0.00 0.00 0.00 0.00 0.00 0.00 0.00 0.00 0.00 0.00 0.00 0.00 0.00 0.00 0.00 0.00 0.00 0.00 0.01
0.00 0.01 0.01 0.00 0.00 0.00 0.00 0.00 0.00 0.00 0.00 0.00 0.00 0.00 0.00 0.00 0.00 0.00 0.00 0.00 0.00 0.00 0.00 0.00 0.00 0.00 0.00 0.00 0.00 0.00 0.00 0.00 0.00 0.00 0.00 0.00 0.00 0.00 0.00 0.00 0.00 0.00 0.00 0.00
0.00 0.01 0.02 0.02 0.00 0.00 0.00 0.00 0.00 0.00 0.00 0.00 0.00 0.00 0.00 0.00 0.00 0.00 0.00 0.00 0.00 0.00 0.00 0.00 0.00 0.00 0.00 0.00 0.00 0.00 0.00 0.00 0.00 0.00 0.00 0.00 0.00 0.00 0.00 0.00 0.00 0.00 0.00 0.00
0.00 0.00 0.01 0.03 0.01 0.00 0.00 0.00 0.00 0.00 0.00 0.00 0.00 0.00 0.00 0.00 0.00 0.00 0.00 0.00 0.00 0.00 0.00 0.00 0.00 0.00 0.00 0.00 0.00 0.00 0.00 0.00 0.00 0.00 0.00 0.00 0.00 0.00 0.00 0.00 0.00 0.00 0.00 0.00
0.00 0.00 0.01 0.04 0.01 0.00 0.00 0.00 0.00 0.00 0.00 0.00 0.00 0.00 0.00 0.00 0.00 0.00 0.00 0.00 0.00 0.00 0.00 0.00 0.00 0.00 0.00 0.00 0.00 0.00 0.00 0.00 0.00 0.00 0.00 0.00 0.00 0.00 0.00 0.00 0.00 0.00 0.00 0.00
0.00 0.00 0.03 0.05 0.01 0.00 0.00 0.00 0.00 0.00 0.00 0.00 0.00 0.00 0.00 0.00 0.00 0.00 0.00 0.00 0.00 0.00 0.00 0.00 0.00 0.00 0.00 0.00 0.00 0.00 0.00 0.00 0.00 0.00 0.00 0.00 0.00 0.00 0.00 0.00 0.00 0.00 0.00 0.00
0.00 0.00 0.04 0.04 0.00 0.00 0.00 0.00 0.00 0.00 0.00 0.00 0.00 0.00 0.00 0.00 0.00 0.00 0.00 0.00 0.00 0.00 0.00 0.00 0.00 0.00 0.00 0.00 0.00 0.00 0.00 0.00 0.00 0.00 0.00 0.00 0.00 0.00 0.00 0.00 0.00 0.00 0.00 0.00
0.01 0.01 0.04 0.03 0.00 0.00 0.00 0.00 0.00 0.00 0.00 0.00 0.00 0.00 0.00 0.00 0.00 0.00 0.00 0.00 0.00 0.00 0.00 0.00 0.00 0.00 0.00 0.00 0.00 0.00 0.00 0.00 0.00 0.00 0.00 0.00 0.00 0.00 0.00 0.00 0.00 0.00 0.00 0.00
0.01 0.02 0.04 0.01 0.00 0.00 0.00 0.00 0.00 0.00 0.00 0.00 0.00 0.00 0.00 0.00 0.00 0.00 0.00 0.00 0.00 0.00 0.00 0.02 0.01 0.01 0.00 0.00 0.00 0.00 0.00 0.00 0.00 0.00 0.00 0.00 0.00 0.00 0.00 0.00 0.00 0.00 0.00 0.00
0.01 0.02 0.02 0.01 0.01 0.01 0.00 0.00 0.00 0.00 0.00 0.00 0.00 0.00 0.00 0.00 0.00 0.00 0.00 0.00 0.00 0.01 0.03 0.01 0.01 0.00 0.00 0.00 0.00 0.00 0.00 0.00 0.00 0.00 0.00 0.00 0.00 0.00 0.00 0.00 0.00 0.00 0.00 0.00
0.01 0.01 0.00 0.01 0.02 0.01 0.00 0.00 0.00 0.00 0.00 0.00 0.00 0.00 0.00 0.00 0.00 0.00 0.00 0.00 0.00 0.03 0.02 0.01 0.00 0.00 0.00 0.00 0.00 0.00 0.00 0.00 0.00 0.00 0.00 0.00 0.00 0.00 0.00 0.00 0.00 0.00 0.00 0.00
0.01 0.00 0.00 0.02 0.03 0.00 0.00 0.00 0.00 0.00 0.00 0.00 0.00 0.00 0.00 0.00 0.00 0.00 0.00 0.00 0.01 0.01 0.01 0.00 0.00 0.00 0.00 0.00 0.00 0.00 0.00 0.00 0.00 0.00 0.00 0.00 0.00 0.00 0.00 0.00 0.00 0.00 0.00 0.00
0.00 0.00 0.00 0.01 0.01 0.00 0.00 0.00 0.00 0.00 0.00 0.00 0.00 0.00 0.00 0.00 0.00 0.00 0.00 0.00 0.00 0.00 0.00 0.00 0.00 0.00 0.00 0.00 0.00 0.00 0.00 0.00 0.00 0.00 0.01 0.02 0.01 0.00 0.00 0.00 0.00 0.00 0.00 0.00
0.00 0.00 0.00 0.00 0.00 0.00 0.01 0.00 0.00 0.00 0.00 0.00 0.00 0.00 0.00 0.00 0.00 0.00 0.01 0.00 0.00 0.00 0.00 0.00 0.00 0.00 0.00 0.00 0.00 0.00 0.00 0.00 0.01 0.02 0.02 0.02 0.00 0.00 0.00 0.00 0.00 0.00 0.00 0.00
0.00 0.00 0.00 0.00 0.00 0.01 0.00 0.00 0.00 0.00 0.00 0.00 0.00 0.00 0.00 0.00 0.00 0.02 0.01 0.01 0.00 0.00 0.00 0.00 0.00 0.00 0.00 0.00 0.00 0.00 0.00 0.00 0.01 0.02 0.01 0.00 0.00 0.00 0.00 0.00 0.00 0.00 0.00 0.00
0.00 0.00 0.01 0.01 0.00 0.00 0.00 0.00 0.00 0.00 0.00 0.00 0.00 0.00 0.01 0.00 0.01 0.01 0.01 0.01 0.00 0.00 0.00 0.00 0.00 0.00 0.00 0.00 0.00 0.00 0.00 0.00 0.01 0.01 0.01 0.00 0.00 0.00 0.00 0.00 0.00 0.00 0.00 0.00
0.00 0.01 0.01 0.00 0.00 0.00 0.00 0.00 0.00 0.00 0.00 0.00 0.00 0.02 0.01 0.01 0.00 0.00 0.00 0.00 0.00 0.00 0.00 0.00 0.00 0.00 0.00 0.00 0.00 0.00 0.00 0.00 0.00 0.00 0.00 0.00 0.00 0.00 0.00 0.00 0.00 0.00 0.00 0.00
0.00 0.00 0.00 0.00 0.00 0.00 0.00 0.02 0.04 0.02 0.01 0.02 0.03 0.04 0.02 0.01 0.00 0.00 0.00 0.00 0.00 0.00 0.00 0.00 0.00 0.00 0.00 0.00 0.00 0.00 0.00 0.00 0.00 0.00 0.00 0.00 0.00 0.00 0.00 0.00 0.00 0.00 0.00 0.00
0.00 0.00 0.00 0.00 0.00 0.01 0.03 0.04 0.05 0.02 0.02 0.03 0.02 0.02 0.02 0.01 0.00 0.00 0.00 0.00 0.00 0.00 0.01 0.00 0.00 0.00 0.00 0.00 0.00 0.00 0.00 0.00 0.00 0.00 0.00 0.00 0.00 0.00 0.00 0.00 0.00 0.00 0.00 0.00
0.02 0.00 0.00 0.00 0.00 0.01 0.04 0.05 0.02 0.02 0.03 0.03 0.01 0.00 0.00 0.00 0.00 0.00 0.00 0.01 0.00 0.01 0.01 0.00 0.01 0.01 0.00 0.00 0.00 0.00 0.00 0.00 0.00 0.00 0.00 0.00 0.00 0.00 0.00 0.00 0.00 0.00 0.00 0.00
0.00 0.00 0.00 0.00 0.01 0.02 0.02 0.01 0.00 0.01 0.02 0.01 0.00 0.00 0.00 0.00 0.00 0.00 0.00 0.00 0.01 0.01 0.01 0.02 0.02 0.00 0.00 0.00 0.00 0.00 0.00 0.00 0.00 0.00 0.00 0.00 0.00 0.00 0.00 0.00 0.00 0.00 0.00 0.00
0.00 0.00 0.00 0.01 0.02 0.02 0.01 0.01 0.01 0.00 0.01 0.01 0.00 0.00 0.00 0.00 0.00 0.00 0.00 0.01 0.01 0.01 0.01 0.01 0.01 0.00 0.00 0.00 0.00 0.00 0.00 0.00 0.00 0.00 0.00 0.00 0.00 0.00 0.00 0.00 0.00 0.00 0.00 0.00
MSLP
1023.36 1022.33 1021.26 1020.12 1018.85 1016.94 1015.35 1014.68 1014.39 1015.50 1014.55 1014.31 1015.67 1017.50 1018.91 1019.95 1019.90 1019.73 1019.60 1019.40 1019.16 1019.09 1019.02 1018.84 1019.05 1019.50 1020.09 1020.32 1019.85 1019.01 1018.92 1018.91 1018.67 1020.13 1020.99 1021.15 1020.63 1019.75 1019.13 1018.15 1017.48 1017.39 1018.18 1021.13
1023.92 1023.00 1021.96 1020.58 1019.40 1018.57 1017.69 1016.04 1016.03 1016.25 1014.79 1015.80 1017.25 1018.97 1019.93 1020.57 1020.57 1020.69 1020.43 1020.36 1020.44 1020.34 1020.12 1019.94 1019.91 1020.18 1020.75 1020.74 1020.18 1019.98 1019.66 1019.38 1019.13 1020.29 1021.17 1021.13 1020.73 1020.84 1020.59 1020.03 1019.43 1018.90 1019.65 1021.90
1024.52 1023.67 1022.72 1021.52 1019.93 1019.07 1018.25 1016.98 1016.57 1017.04 1017.43 1018.57 1018.68 1019.44 1020.33 1020.89 1021.45 1021.44 1021.43 1021.27 1021.11 1020.94 1020.72 1020.82 1020.83 1020.83 1021.08 1021.13 1020.93 1020.73 1020.46 1020.07 1019.89 1020.08 1020.52 1020.53 1020.95 1021.35 1021.22 1020.99 1020.33 1020.54 1021.00 1022.41
1024.82 1024.26 1023.53 1022.58 1021.29 1019.64 1018.62 1018.73 1019.58 1020.23 1018.96 1019.28 1019.80 1020.31 1020.96 1021.25 1021.60 1021.86 1021.92 1021.64 1021.90 1022.09 1021.81 1021.42 1021.40 1021.53 1021.26 1021.49 1021.29 1021.09 1021.02 1020.81 1020.50 1020.71 1020.84 1020.94 1021.49 1021.63 1021.74 1021.78 1022.05 1021.92 1022.59 1022.87
1025.21 1024.54 1023.97 1023.33 1022.55 1021.04 1020.47 1020.96 1021.50 1020.97 1020.41 1020.57 1020.42 1021.01 1021.47 1021.83 1022.09 1022.36 1022.30 1022.37 1022.48 1022.53 1022.65 1022.92 1022.73 1022.57 1022.20 1022.18 1021.74 1021.63 1021.64 1021.21 1021.18 1021.24 1021.24 1021.25 1021.54 1021.77 1021.93 1022.33 1022.62 1022.79 1023.03 1023.27
1025.45 1024.88 1024.21 1023.85 1023.34 1022.14 1021.83 1022.47 1022.76 1022.40 1021.41 1020.98 1020.91 1021.38 1021.87 1022.22 1022.53 1022.78 1022.88 1022.96 1022.90 1022.89 1023.26 1023.42 1023.18 1023.01 1022.93 1023.02 1022.96 1022.49 1022.33 1021.89 1021.54 1020.82 1021.38 1021.37 1021.40 1021.75 1022.28 1022.63 1022.94 1023.20 1023.11 1023.54
1025.61 1025.03 1024.47 1024.01 1023.80 1023.59 1023.03 1023.28 1023.01 1022.59 1021.30 1021.28 1021.53 1021.93 1022.26 1022.48 1022.76 1022.93 1022.93 1023.16 1023.19 1023.65 1023.70 1023.66 1023.37 1023.09 1022.98 1023.08 1023.10 1023.34 1022.79 1022.58 1022.27 1021.43 1021.76 1021.47 1021.95 1022.06 1022.40 1022.52 1022.58 1022.80 1023.16 1023.41
1025.67 1025.15 1024.53 1024.05 1023.89 1023.95 1023.54 1023.65 1023.50 1023.36 1022.11 1021.83 1021.94 1022.23 1022.35 1022.68 1022.95 1023.10 1023.18 1023.30 1023.72 1023.78 1023.59 1023.11 1022.72 1022.42 1022.59 1022.41 1022.68 1022.97 1023.34 1023.04 1022.53 1022.01 1021.23 1021.38 1021.80 1021.93 1022.25 1022.39 1022.24 1022.45 1022.87 1023.15
1025.56 1025.01 1024.57 1024.09 1023.88 1023.91 1023.82 1023.93 1024.01 1023.81 1023.35 1022.04 1022.27 1022.40 1022.71 1022.57 1022.67 1023.04 1023.36 1023.80 1023.96 1023.87 1023.24 1022.86 1022.55 1021.74 1022.33 1022.36 1022.60 1023.24 1023.45 1023.48 1023.03 1022.28 1021.51 1020.72 1020.93 1021.78 1022.48 1022.79 1022.15 1022.53 1023.01 1023.32
1025.33 1024.84 1024.35 1023.97 1023.93 1023.86 1023.85 1023.96 1024.28 1024.13 1023.65 1022.54 1022.96 1022.80 1023.00 1023.34 1023.43 1023.15 1023.43 1023.64 1023.87 1024.00 1023.10 1022.59 1022.44 1022.26 1023.30 1022.90 1022.72 1022.94 1022.94 1022.92 1022.56 1021.84 1021.52 1020.89 1021.32 1022.38 1022.99 1023.28 1023.56 1023.30 1023.67 1023.99
1025.12 1024.53 1024.13 1023.75 1023.76 1023.94 1024.04 1023.98 1024.32 1024.19 1023.83 1023.20 1023.37 1023.53 1023.71 1023.88 1023.84 1023.31 1023.87 1024.26 1024.23 1023.95 1023.55 1023.42 1023.20 1023.25 1023.64 1023.77 1023.09 1023.19 1023.10 1022.78 1022.37 1022.43 1022.03 1021.61 1021.94 1023.21 1023.54 1023.79 1023.77 1024.15 1024.54 1024.93
1024.89 1024.32 1023.85 1023.61 1023.59 1023.81 1023.93 1023.86 1024.37 1024.44 1024.30 1023.70 1023.77 1023.68 1023.84 1024.11 1024.18 1024.11 1024.42 1024.36 1024.26 1024.24 1024.14 1024.36 1024.18 1023.73 1024.13 1024.08 1023.56 1023.91 1023.89 1023.59 1023.16 1022.82 1022.14 1022.44 1022.67 1023.53 1024.08 1024.65 1025.12 1025.36 1025.98 1026.35
1024.65 1024.06 1023.50 1023.22 1023.35 1023.62 1023.78 1023.80 1024.22 1024.35 1024.13 1023.45 1023.59 1023.60 1024.05 1024.48 1024.45 1024.43 1024.57 1024.62 1025.08 1025.26 1025.54 1025.21 1025.05 1024.66 1024.41 1023.98 1023.62 1023.89 1023.82 1024.24 1024.01 1023.46 1023.04 1023.13 1023.55 1024.32 1024.85 1025.58 1026.17 1026.89 1027.36 1027.65
1024.33 1023.70 1023.21 1023.02 1023.27 1023.71 1023.69 1023.73 1024.25 1024.33 1024.02 1023.63 1023.59 1024.05 1024.25 1024.70 1024.57 1024.56 1024.72 1025.16 1025.87 1026.00 1025.87 1025.55 1025.21 1025.00 1025.14 1024.66 1025.12 1024.91 1024.69 1024.80 1024.24 1023.80 1023.35 1023.85 1024.27 1024.95 1025.76 1026.61 1027.35 1027.91 1028.27 1028.46
1024.07 1023.50 1023.04 1022.87 1023.50 1023.72 1023.80 1024.05 1024.35 1024.50 1024.73 1023.70 1023.22 1023.94 1024.57 1024.71 1024.65 1024.90 1025.14 1025.45 1025.76 1025.86 1025.97 1025.74 1025.56 1025.96 1026.09 1025.74 1025.73 1024.83 1024.91 1024.75 1024.76 1024.01 1024.38 1024.67 1025.04 1025.99 1026.89 1027.65 1028.20 1028.66 1029.01 1028.93
1023.82 1023.38 1023.06 1022.82 1023.40 1023.75 1023.74 1023.99 1024.61 1024.64 1024.70 1024.30 1023.36 1024.10 1024.32 1024.83 1025.01 1025.32 1025.60 1025.86 1025.95 1025.91 1025.74 1025.92 1026.39 1027.18 1027.05 1025.85 1025.00 1024.50 1024.90 1025.12 1025.34 1025.18 1025.35 1025.59 1026.03 1026.85 1027.79 1028.40 1028.71 1029.02 1029.27 1029.21
1023.68 1023.53 1023.26 1022.91 1023.60 1023.77 1023.88 1024.51 1024.53 1024.79 1024.73 1024.34 1023.61 1023.55 1024.46 1024.96 1025.24 1025.64 1025.93 1026.25 1026.27 1026.17 1026.37 1026.41 1026.54 1026.76 1026.77 1026.11 1025.18 1024.87 1025.07 1025.27 1025.45 1025.69 1025.98 1026.09 1026.61 1027.24 1028.21 1028.76 1028.95 1029.07 1029.05 1028.86
1023.81 1023.72 1023.82 1023.90 1023.96 1024.12 1024.32 1024.75 1024.93 1024.90 1024.56 1024.50 1024.02 1023.50 1024.15 1025.01 1024.75 1025.24 1026.05 1026.05 1026.27 1026.60 1026.70 1026.97 1026.66 1026.99 1026.90 1026.21 1025.34 1025.22 1025.24 1025.31 1025.44 1025.63 1026.07 1026.48 1027.15 1027.68 1028.10 1028.50 1028.74 1028.78 1028.60 1028.24
1023.89 1023.99 1024.17 1024.28 1024.33 1024.38 1025.08 1025.14 1025.17 1025.16 1025.18 1024.42 1024.16 1023.74 1023.91 1024.80 1024.98 1025.46 1026.01 1026.02 1026.00 1027.00 1026.61 1026.78 1027.06 1026.47 1026.14 1025.57 1025.66 1025.58 1025.56 1025.69 1025.55 1025.77 1026.11 1026.61 1027.13 1027.42 1027.74 1028.01 1028.02 1027.91 1027.63 1027.17
1024.29 1024.44 1024.40 1024.40 1025.41 1025.24 1025.44 1025.07 1024.77 1024.72 1024.91 1024.73 1024.20 1024.31 1024.23 1024.78 1024.77 1025.20 1025.79 1026.00 1026.17 1026.29 1027.20 1027.20 1026.63 1025.83 1025.44 1025.56 1025.73 1025.86 1025.85 1025.85 1026.02 1026.09 1026.02 1026.51 1026.73 1026.94 1027.11 1027.11 1027.00 1026.94 1026.81 1026.63
1024.62 1024.88 1025.06 1025.60 1025.58 1025.38 1024.98 1024.48 1024.39 1024.41 1024.43 1024.58 1024.58 1024.92 1025.06 1025.60 1025.44 1025.49 1026.36 1026.21 1026.56 1026.45 1027.21 1026.82 1025.91 1025.23 1025.04 1025.24 1025.60 1025.85 1026.09 1026.17 1026.30 1026.52 1026.58 1026.72 1026.77 1026.82 1026.78 1026.69 1026.66 1026.60 1026.48 1026.32
1025.52 1025.88 1026.04 1025.67 1025.27 1024.95 1024.77 1024.14 1024.31 1024.27 1024.40 1024.61 1024.89 1025.35 1025.56 1026.06 1026.22 1025.94 1026.61 1026.49 1026.86 1026.84 1027.27 1026.54 1025.24 1024.73 1025.05 1025.24 1025.58 1025.76 1026.05 1026.28 1026.38 1026.50 1026.58 1026.58 1026.61 1026.62 1026.62 1026.62 1026.57 1026.51 1026.36 1026.24
1025.71 1025.66 1025.59 1025.63 1025.48 1025.13 1024.66 1024.42 1024.03 1024.25 1024.71 1024.92 1025.08 1025.36 1025.79 1026.37 1026.41 1026.50 1026.62 1026.67 1026.94 1027.33 1026.63 1025.64 1024.88 1024.92 1025.31 1025.67 1025.81 1025.83 1025.98 1026.31 1026.43 1026.49 1026.56 1026.62 1026.62 1026.56 1026.61 1026.54 1026.52 1026.44 1026.35 1026.11
1025.82 1025.94 1025.76 1026.03 1025.68 1026.01 1025.97 1026.02 1025.82 1025.63 1025.49 1025.46 1025.59 1025.58 1025.97 1026.11 1026.26 1026.53 1026.46 1027.25 1027.25 1026.23 1025.64 1024.96 1024.82 1025.17 1025.80 1026.03 1026.05 1026.16 1026.24 1026.40 1026.58 1026.70 1026.77 1026.81 1026.75 1026.64 1026.56 1026.47 1026.49 1026.46 1026.24 1025.96
1026.05 1026.22 1026.40 1026.45 1026.96 1026.80 1026.66 1026.68 1026.41 1026.03 1026.11 1025.89 1025.76 1026.01 1026.11 1026.16 1026.34 1026.54 1026.73 1026.65 1026.13 1025.69 1025.20 1024.98 1025.07 1025.70 1026.16 1026.31 1026.40 1026.57 1026.72 1026.90 1026.99 1027.01 1027.02 1026.97 1026.89 1026.74 1026.59 1026.43 1026.36 1026.23 1025.98 1025.68
1026.43 1026.57 1026.69 1026.79 1026.90 1026.67 1026.69 1026.79 1026.59 1026.71 1026.40 1026.32 1026.29 1026.20 1026.14 1026.39 1026.56 1026.49 1026.44 1026.44 1025.81 1025.51 1025.45 1025.41 1025.55 1026.05 1026.51 1026.75 1026.88 1026.92 1027.02 1027.18 1027.23 1027.20 1027.12 1026.96 1026.81 1026.68 1026.51 1026.38 1026.12 1025.82 1025.63 1025.33
1026.85 1027.06 1027.43 1027.57 1027.45 1027.36 1027.40 1027.46 1027.32 1027.25 1026.77 1026.47 1026.52 1026.47 1026.73 1026.93 1026.66 1026.51 1026.55 1026.31 1026.24 1026.09 1025.93 1026.05 1026.39 1026.66 1026.95 1027.20 1027.18 1027.11 1027.18 1027.17 1027.11 1027.01 1026.89 1026.75 1026.58 1026.44 1026.30 1025.90 1025.43 1025.32 1025.08 1024.82
Thickness
5505 5505 5504 5505 5505 5510 5512 5512 5506 5474 5470 5462 5439 5404 5382 5368 5360 5358 5351 5346 5341 5333 5331 5330 5324 5316 5309 5309 5312 5318 5323 5321 5333 5305 5288 5288 5301 5317 5325 5344 5351 5358 5356 5311
5495 5493 5492 5493 5493 5491 5489 5496 5481 5462 5463 5444 5417 5389 5369 5356 5350 5340 5337 5330 5324 5321 5315 5314 5315 5309 5302 5300 5304 5302 5309 5311 5320 5301 5293 5293 5304 5296 5294 5297 5310 5333 5333 5295
5486 5483 5481 5480 5483 5480 5477 5482 5478 5456 5436 5412 5402 5383 5365 5352 5340 5332 5325 5321 5319 5315 5313 5309 5300 5299 5295 5293 5292 5293 5296 5302 5302 5303 5293 5304 5294 5285 5283 5283 5315 5305 5300 5272
5477 5472 5468 5466 5467 5469 5467 5456 5430 5409 5419 5403 5388 5374 5357 5347 5335 5328 5321 5317 5306 5295 5292 5303 5298 5293 5294 5288 5289 5287 5287 5283 5295 5289 5287 5287 5278 5279 5276 5270 5263 5284 5263 5267
5467 5464 5460 5456 5452 5452 5446 5434 5412 5408 5403 5386 5381 5360 5348 5335 5329 5319 5312 5304 5300 5297 5285 5277 5268 5274 5281 5275 5283 5279 5278 5282 5283 5275 5280 5281 5274 5276 5277 5267 5258 5256 5255 5256
5459 5454 5451 5444 5439 5436 5430 5413 5398 5387 5388 5383 5374 5357 5342 5330 5321 5314 5305 5298 5295 5293 5284 5275 5276 5276 5273 5267 5263 5268 5263 5272 5276 5287 5274 5275 5277 5269 5262 5258 5252 5246 5252 5243
5452 5446 5442 5437 5429 5420 5412 5399 5390 5381 5395 5379 5364 5346 5335 5327 5317 5307 5304 5295 5291 5283 5277 5272 5272 5271 5268 5264 5261 5255 5262 5259 5261 5277 5262 5264 5249 5261 5255 5252 5252 5250 5243 5240
5445 5440 5436 5430 5422 5411 5403 5391 5381 5368 5379 5368 5354 5341 5334 5323 5313 5304 5297 5293 5283 5278 5276 5279 5277 5280 5271 5271 5267 5261 5251 5252 5257 5261 5273 5266 5251 5254 5250 5246 5252 5250 5243 5241
5440 5435 5429 5423 5416 5405 5394 5383 5371 5361 5355 5366 5348 5339 5328 5329 5323 5308 5295 5284 5278 5275 5280 5280 5273 5294 5272 5272 5265 5250 5244 5236 5251 5253 5255 5264 5265 5256 5247 5240 5245 5245 5238 5232
5436 5430 5424 5418 5409 5399 5388 5377 5364 5355 5346 5353 5335 5335 5329 5311 5304 5307 5295 5288 5279 5271 5282 5284 5283 5286 5248 5263 5257 5252 5252 5248 5248 5264 5256 5267 5259 5243 5236 5232 5232 5233 5227 5222
5430 5426 5420 5413 5404 5391 5380 5371 5357 5350 5341 5340 5327 5318 5308 5300 5297 5307 5289 5282 5274 5274 5273 5269 5268 5261 5252 5238 5253 5244 5246 5249 5255 5243 5241 5245 5249 5228 5228 5227 5225 5220 5215 5209
5426 5421 5415 5407 5398 5386 5374 5367 5351 5341 5333 5331 5321 5315 5307 5298 5291 5289 5274 5278 5273 5270 5267 5253 5251 5254 5237 5233 5243 5217 5233 5237 5247 5242 5253 5236 5235 5217 5213 5206 5201 5203 5191 5185
5422 5416 5411 5404 5393 5381 5369 5360 5347 5336 5328 5330 5318 5313 5302 5291 5285 5280 5279 5274 5258 5252 5240 5243 5238 5234 5236 5241 5250 5233 5230 5214 5225 5226 5226 5223 5219 5207 5203 5195 5188 5177 5170 5164
5418 5413 5407 5399 5387 5375 5365 5355 5340 5330 5325 5323 5318 5301 5295 5285 5279 5274 5268 5257 5244 5238 5237 5236 5236 5234 5227 5234 5216 5216 5222 5208 5220 5221 5225 5212 5207 5202 5189 5178 5166 5159 5155 5151
5414 5409 5402 5393 5378 5368 5358 5345 5332 5321 5316 5322 5318 5298 5285 5279 5274 5266 5259 5250 5243 5239 5232 5229 5229 5222 5215 5210 5202 5215 5209 5215 5214 5228 5205 5202 5200 5181 5167 5156 5151 5144 5136 5137
5410 5403 5394 5386 5372 5360 5351 5344 5326 5315 5307 5303 5313 5291 5283 5272 5266 5257 5248 5241 5235 5234 5231 5225 5214 5191 5203 5215 5222 5220 5203 5195 5190 5200 5187 5182 5177 5163 5151 5148 5142 5135 5127 5125
5404 5396 5386 5378 5364 5353 5345 5332 5318 5307 5300 5299 5305 5302 5276 5266 5258 5249 5241 5231 5227 5225 5218 5216 5212 5208 5203 5208 5212 5212 5201 5192 5186 5178 5173 5176 5165 5163 5138 5128 5126 5123 5120 5117
5397 5387 5376 5365 5354 5343 5334 5318 5308 5300 5297 5289 5294 5300 5282 5259 5264 5255 5235 5230 5223 5215 5211 5205 5209 5201 5197 5196 5207 5201 5196 5188 5180 5174 5167 5160 5148 5139 5132 5122 5117 5116 5115 5114
5389 5378 5366 5356 5347 5340 5323 5310 5301 5293 5288 5289 5284 5294 5292 5256 5252 5241 5232 5228 5226 5207 5213 5207 5200 5203 5199 5207 5195 5188 5186 5181 5179 5170 5162 5151 5140 5136 5128 5123 5121 5118 5115 5117
5376 5365 5358 5353 5331 5321 5312 5304 5299 5292 5282 5275 5280 5270 5276 5256 5252 5242 5233 5224 5221 5221 5202 5196 5200 5206 5205 5195 5188 5181 5175 5170 5164 5161 5162 5150 5143 5136 5129 5125 5121 5116 5112 5108
5365 5356 5348 5329 5320 5314 5306 5303 5297 5287 5286 5271 5267 5256 5256 5238 5244 5239 5218 5218 5209 5219 5201 5199 5207 5209 5206 5196 5184 5174 5165 5161 5155 5147 5142 5135 5130 5124 5120 5116 5111 5106 5102 5097
5348 5336 5325 5318 5312 5305 5298 5303 5286 5283 5284 5268 5261 5252 5241 5231 5225 5229 5213 5216 5204 5215 5186 5193 5207 5212 5198 5190 5179 5171 5163 5155 5149 5143 5135 5130 5124 5118 5112 5106 5101 5096 5091 5086
5340 5330 5322 5312 5304 5312 5308 5305 5304 5290 5269 5259 5254 5249 5237 5225 5222 5214 5213 5213 5209 5182 5193 5207 5210 5202 5191 5178 5172 5168 5162 5151 5144 5137 5130 5122 5115 5110 5103 5097 5091 5086 5080 5077
5330 5321 5315 5303 5311 5291 5277 5268 5265 5259 5253 5248 5243 5242 5234 5229 5222 5213 5215 5192 5184 5207 5208 5210 5208 5195 5177 5172 5167 5160 5153 5146 5136 5128 5120 5112 5106 5100 5095 5089 5082 5075 5070 5068
5325 5315 5302 5295 5272 5264 5257 5249 5248 5248 5241 5241 5242 5234 5230 5225 5219 5212 5204 5206 5212 5209 5211 5207 5200 5182 5170 5165 5159 5149 5140 5132 5124 5117 5109 5103 5096 5091 5085 5080 5074 5068 5064 5060
5315 5305 5298 5285 5273 5270 5259 5251 5248 5239 5239 5236 5234 5230 5229 5221 5215 5214 5212 5207 5213 5210 5203 5198 5189 5177 5165 5156 5148 5142 5133 5121 5113 5107 5100 5095 5088 5082 5076 5069 5065 5061 5056 5052
5304 5295 5281 5271 5263 5258 5250 5244 5240 5236 5239 5240 5234 5234 5222 5212 5219 5218 5209 5210 5205 5200 5196 5187 5176 5166 5157 5146 5140 5135 5125 5117 5110 5102 5095 5088 5081 5074 5067 5063 5061 5054 5050 5046